Flag for China Weather past 2 weeks in Guilin, Guangxi, China

Now
82 °F

Overcast.


Feels Like: 85 °F
Forecast: 76 / 88 °F
Wind: 20 mph from Northeast

Location: Guilin Airport

Current Time: Jul 25, 2014 at 8:07:53 PM

Latest Report: Jul 25, 2014 at 7:00 PM


Visibility: N/A

Pressure: 29.68 "Hg

Humidity: 58%

Dew point: 66 °F

Location of GuilinLocation

Historic Weather in Guilin — Graph

°F

Guilin temperature yesterday

Maximum temperature yesterday: 97 °F (at 3:00 PM)
Minimum temperature yesterday: 73 °F (at 5:00 AM)
Average temperature yesterday: 84 °F

Past Weeks' High & Low Weather Summary

 TemperatureHumidityPressure
High99 °F (Jul 22, 3:00 PM)100% (Jul 16, 3:00 AM)29.83 "Hg (Jul 16, 3:00 AM)
Low68 °F (Jul 14, 3:00 AM)35% (Jul 23, 4:00 PM)29.47 "Hg (Jul 24, 5:00 PM)
Average83 °F77%29.69 "Hg
* Reported Jul 10 6:00 PM — Jul 25 6:00 PM, Guilin, Weather by CustomWeather, © 2014

Note: Actual official high and low records may vary slightly from our data, if they occured in-between our weather recording intervals... More about our weather records

Advertising

Guilin weather history for previous 24 hours

 ConditionsComfort  
Time TempWeatherWind HumidityBarometerVisibility
6:00 PM
Jul 25
90 °FPassing clouds.6 mph59%29.62 "HgN/A
5:00 PM90 °FPassing clouds.10 mph59%29.62 "HgN/A
4:00 PM91 °FSunny.10 mph59%29.62 "Hg10 mi
3:00 PM90 °FPassing clouds.10 mph63%29.65 "HgN/A
2:00 PM90 °FPassing clouds.10 mph63%29.65 "Hg5 mi
1:00 PM88 °FScattered clouds.8 mph66%29.71 "HgN/A
12:00 PM86 °FPartly sunny.3 mph66%29.71 "HgN/A
11:00 AM86 °FBroken clouds.3 mph70%29.71 "HgN/A
10:00 AM82 °FBroken clouds.1 mph74%29.71 "HgN/A
9:00 AM79 °FBroken clouds.1 mph84%29.71 "Hg4 mi
8:00 AM77 °FBroken clouds.1 mph89%29.71 "Hg4 mi
7:00 AM75 °FFog.1 mph94%29.68 "Hg2 mi
6:00 AM75 °FFog.1 mph94%29.65 "Hg2 mi
5:00 AM75 °FFog.1 mph94%29.65 "Hg3 mi
4:00 AM75 °FPassing clouds.No wind94%29.65 "Hg4 mi
3:00 AM75 °FFog.1 mph94%29.62 "Hg3 mi
2:00 AM75 °FPassing clouds.1 mph94%29.65 "Hg4 mi
1:00 AM75 °FPassing clouds.1 mph94%29.65 "Hg4 mi
12:00 AM75 °FPassing clouds.3 mph94%29.65 "Hg4 mi
11:00 PM
Jul 24
75 °FPassing clouds.6 mph94%29.65 "Hg4 mi
10:00 PM75 °FThunderstorms. Passing clouds.6 mph94%29.68 "Hg5 mi
9:00 PM75 °FThunderstorms. Passing clouds.8 mph89%29.68 "HgN/A
8:00 PM88 °FThunderstorms. Passing clouds.13 mph55%29.56 "Hg6 mi
Weather by CustomWeather, © 2014

See weather overviewHow to use our weather pages